Location: Milton Keynes
(52.0316°N, 0.7531°W)
Time: 10:25:44
(UTC+00:00)

N. Korean satellite - Pass Details

Date: 30 January 2019
Orbit: 456 x 510 km, 97.2° (Epoch: 22 February)

Event Time Altitude Azimuth Distance (km) Brightness Sun altitude
Rises 05:25:00 0° 26° (NNE) 2,606 10.6 -21.7°
Reaches altitude 10° 05:27:37 10° 45° (NE) 1,706 9.9 -21.3°
Maximum altitude 05:30:14 18° 91° (E) 1,253 9.6 -20.9°
Drops below altitude 10° 05:32:49 10° 137° (SE) 1,673 9.9 -20.5°
Sets 05:35:20 0° 156° (SSE) 2,535 10.6 -20.1°
